| time (UTC) | temp C | wind direction | speed KPH | gust KPH | rain 1hr cm | rain 24hr cm | rain mn cm | humidity % | barometer mb |
| 20260505041605 | 11 | 307 | 0.0 | 3.2 | 0.00 | 0.23 | 0.15 | 94 | 1011.4 |
| 20260505041022 | 11 | 258 | 0.0 | 8.0 | 0.00 | 0.23 | 0.15 | 94 | 1011.4 |
| 20260505040510 | 11 | 308 | 1.6 | 8.0 | 0.00 | 0.23 | 0.15 | 94 | 1011.3 |
| 20260505040048 | 11 | 314 | 0.0 | 6.4 | 0.00 | 0.23 | 0.15 | 94 | 1011.4 |
| 20260505035600 | 11 | 352 | 1.6 | 6.4 | 0.00 | 0.25 | 0.15 | 94 | 1011.5 |
| 20260505035020 | 11 | 320 | 0.0 | 6.4 | 0.00 | 0.25 | 0.15 | 94 | 1011.4 |
| 20260505034545 | 11 | 328 | 1.6 | 8.0 | 0.00 | 0.25 | 0.15 | 94 | 1011.6 |
| 20260505034006 | 11 | 300 | 1.6 | 8.0 | 0.00 | 0.25 | 0.15 | 94 | 1011.5 |
| 20260505033531 | 11 | 308 | 1.6 | 11.3 | 0.00 | 0.25 | 0.15 | 94 | 1011.5 |
| 20260505033059 | 11 | 281 | 3.2 | 11.3 | 0.00 | 0.25 | 0.15 | 94 | 1011.7 |
| 20260505032521 | 11 | 313 | 0.0 | 6.4 | 0.00 | 0.25 | 0.15 | 94 | 1011.7 |
| 20260505032049 | 11 | 297 | 1.6 | 6.4 | 0.00 | 0.25 | 0.15 | 94 | 1011.7 |
| 20260505031523 | 11 | 298 | 0.0 | 9.7 | 0.00 | 0.25 | 0.15 | 94 | 1011.6 |
| 20260505031036 | 11 | 319 | 1.6 | 9.7 | 0.00 | 0.25 | 0.15 | 94 | 1011.6 |
| 20260505030604 | 11 | 293 | 1.6 | 8.0 | 0.00 | 0.25 | 0.15 | 94 | 1011.6 |
| 20260505030052 | 11 | 316 | 1.6 | 8.0 | 0.00 | 0.25 | 0.15 | 94 | 1011.6 |
| 20260505025513 | 11 | 309 | 0.0 | 6.4 | 0.00 | 0.25 | 0.15 | 94 | 1011.6 |
| 20260505025043 | 11 | 300 | 0.0 | 6.4 | 0.00 | 0.25 | 0.15 | 94 | 1011.6 |
| 20260505024555 | 11 | 309 | 1.6 | 6.4 | 0.00 | 0.25 | 0.15 | 94 | 1011.5 |
| 20260505024002 | 11 | 292 | 3.2 | 6.4 | 0.00 | 0.25 | 0.15 | 94 | 1011.6 |
| 20260505023508 | 11 | 324 | 3.2 | 6.4 | 0.00 | 0.25 | 0.15 | 94 | 1011.6 |
| 20260505023013 | 11 | 305 | 1.6 | 6.4 | 0.00 | 0.25 | 0.15 | 94 | 1011.7 |
| 20260505022552 | 11 | 293 | 0.0 | 4.8 | 0.00 | 0.25 | 0.15 | 94 | 1011.7 |
| 20260505022058 | 11 | 273 | 0.0 | 4.8 | 0.00 | 0.25 | 0.15 | 94 | 1011.8 |
| 20260505021517 | 11 | 293 | 0.0 | 3.2 | 0.00 | 0.25 | 0.15 | 94 | 1011.8 |
| 20260505021044 | 11 | 300 | 0.0 | 3.2 | 0.00 | 0.25 | 0.15 | 94 | 1011.7 |
| 20260505020612 | 11 | 273 | 0.0 | 1.6 | 0.00 | 0.25 | 0.15 | 94 | 1011.7 |
| 20260505020015 | 11 | 274 | 0.0 | 1.6 | 0.00 | 0.25 | 0.15 | 94 | 1011.6 |
| 20260505015545 | 11 | 273 | 0.0 | 1.6 | 0.00 | 0.25 | 0.15 | 94 | 1011.7 |
| 20260505015004 | 11 | 273 | 0.0 | 4.8 | 0.00 | 0.25 | 0.15 | 94 | 1011.7 |
| 20260505014541 | 11 | 180 | 0.0 | 6.4 | 0.00 | 0.25 | 0.15 | 94 | 1011.7 |
| 20260505014100 | 11 | 193 | 0.0 | 6.4 | 0.00 | 0.25 | 0.15 | 94 | 1011.7 |
| 20260505013530 | 11 | 315 | 0.0 | 4.8 | 0.00 | 0.25 | 0.15 | 94 | 1011.7 |
| 20260505013057 | 11 | 309 | 0.0 | 4.8 | 0.00 | 0.25 | 0.15 | 94 | 1011.6 |
| 20260505012519 | 11 | 306 | 0.0 | 4.8 | 0.00 | 0.25 | 0.15 | 94 | 1011.7 |
| 20260505012045 | 11 | 265 | 0.0 | 4.8 | 0.00 | 0.25 | 0.15 | 94 | 1011.7 |
| 20260505011559 | 11 | 333 | 0.0 | 4.8 | 0.00 | 0.25 | 0.15 | 94 | 1011.8 |
| 20260505011009 | 11 | 309 | 1.6 | 4.8 | 0.00 | 0.25 | 0.15 | 94 | 1011.8 |
| 20260505010537 | 11 | 311 | 0.0 | 6.4 | 0.00 | 0.25 | 0.15 | 94 | 1011.8 |
| 20260505010046 | 11 | 202 | 1.6 | 6.4 | 0.00 | 0.25 | 0.15 | 94 | 1011.8 |
| 20260505005509 | 12 | 228 | 0.0 | 6.4 | 0.00 | 0.28 | 0.15 | 94 | 1011.9 |
| 20260505005034 | 12 | 310 | 1.6 | 6.4 | 0.00 | 0.28 | 0.15 | 94 | 1011.8 |
| 20260505004542 | 12 | 311 | 0.0 | 4.8 | 0.00 | 0.28 | 0.15 | 94 | 1011.8 |
| 20260505004011 | 12 | 307 | 0.0 | 4.8 | 0.00 | 0.28 | 0.15 | 94 | 1011.9 |
| 20260505003539 | 12 | 262 | 0.0 | 4.8 | 0.00 | 0.28 | 0.15 | 94 | 1011.9 |
| 20260505003105 | 12 | 232 | 0.0 | 3.2 | 0.00 | 0.28 | 0.15 | 94 | 1012.0 |
| 20260505002632 | 12 | 324 | 0.0 | 3.2 | 0.00 | 0.28 | 0.15 | 94 | 1012.1 |
| 20260505002103 | 12 | 255 | 0.0 | 3.2 | 0.00 | 0.28 | 0.15 | 94 | 1012.0 |
| 20260505001520 | 12 | 197 | 0.0 | 4.8 | 0.00 | 0.28 | 0.15 | 94 | 1012.1 |
| 20260505001046 | 12 | 198 | 0.0 | 4.8 | 0.00 | 0.28 | 0.15 | 94 | 1012.1 |
| 20260505000552 | 12 | 214 | 0.0 | 3.2 | 0.00 | 0.28 | 0.15 | 94 | 1012.1 |
| 20260505000050 | 12 | 198 | 0.0 | 3.2 | 0.03 | 0.28 | 0.15 | 94 | 1012.1 |
| 20260504235503 | 12 | 307 | 0.0 | 3.2 | 0.03 | 0.33 | 0.15 | 94 | 1012.1 |
| 20260504235028 | 12 | 186 | 0.0 | 4.8 | 0.05 | 0.33 | 0.15 | 94 | 1012.2 |
| 20260504234555 | 12 | 177 | 1.6 | 4.8 | 0.05 | 0.33 | 0.15 | 94 | 1012.3 |
| 20260504234100 | 12 | 235 | 0.0 | 4.8 | 0.05 | 0.33 | 0.15 | 94 | 1012.2 |
| 20260504233522 | 12 | 219 | 0.0 | 4.8 | 0.05 | 0.33 | 0.15 | 94 | 1012.3 |
| 20260504233106 | 12 | 236 | 0.0 | 4.8 | 0.08 | 0.33 | 0.15 | 94 | 1012.3 |
| 20260504232555 | 12 | 224 | 0.0 | 4.8 | 0.13 | 0.33 | 0.15 | 94 | 1012.3 |
| 20260504232016 | 12 | 158 | 0.0 | 4.8 | 0.13 | 0.33 | 0.15 | 94 | 1012.3 |
| 20260504231544 | 12 | 174 | 0.0 | 4.8 | 0.15 | 0.33 | 0.15 | 94 | 1012.4 |
| 20260504231006 | 12 | 189 | 0.0 | 4.8 | 0.15 | 0.33 | 0.15 | 94 | 1012.5 |
| 20260504230533 | 12 | 236 | 0.0 | 4.8 | 0.15 | 0.33 | 0.15 | 94 | 1012.5 |
| 20260504230040 | 12 | 201 | 0.0 | 3.2 | 0.13 | 0.30 | 0.13 | 94 | 1012.5 |
| 20260504225543 | 12 | 146 | 0.0 | 1.6 | 0.13 | 0.30 | 0.13 | 94 | 1012.5 |
| 20260504225046 | 12 | 193 | 0.0 | 1.6 | 0.13 | 0.28 | 0.10 | 94 | 1012.6 |
| 20260504224507 | 12 | 184 | 0.0 | 6.4 | 0.13 | 0.28 | 0.10 | 94 | 1012.5 |
| 20260504224036 | 12 | 265 | 0.0 | 6.4 | 0.10 | 0.25 | 0.08 | 94 | 1012.6 |
| 20260504223600 | 12 | 203 | 0.0 | 4.8 | 0.10 | 0.25 | 0.08 | 94 | 1012.7 |
| 20260504223032 | 12 | 210 | 0.0 | 3.2 | 0.05 | 0.23 | 0.05 | 94 | 1012.7 |
| 20260504222548 | 12 | 213 | 0.0 | 3.2 | 0.05 | 0.20 | 0.03 | 94 | 1012.7 |
| 20260504222010 | 12 | 187 | 0.0 | 6.4 | 0.03 | 0.18 | 0.00 | 94 | 1012.8 |
| 20260504221537 | 12 | 231 | 0.0 | 6.4 | 0.03 | 0.18 | 0.00 | 94 | 1012.8 |
| 20260504221105 | 12 | 207 | 0.0 | 1.6 | 0.05 | 0.18 | 0.00 | 93 | 1012.9 |
| 20260504220624 | 12 | 304 | 0.0 | 3.2 | 0.05 | 0.18 | 0.00 | 93 | 1012.9 |
| 20260504220027 | 12 | 326 | 0.0 | 6.4 | 0.05 | 0.18 | 0.00 | 93 | 1013.0 |
| 20260504215558 | 12 | 302 | 0.0 | 6.4 | 0.05 | 0.18 | 0.18 | 93 | 1013.1 |
| 20260504215021 | 13 | 313 | 1.6 | 6.4 | 0.03 | 0.15 | 0.15 | 93 | 1013.1 |
| 20260504214547 | 13 | 300 | 0.0 | 4.8 | 0.03 | 0.15 | 0.15 | 93 | 1013.1 |
| 20260504214008 | 13 | 278 | 0.0 | 4.8 | 0.03 | 0.15 | 0.15 | 93 | 1013.1 |
| 20260504213545 | 13 | 207 | 0.0 | 3.2 | 0.03 | 0.15 | 0.15 | 93 | 1013.1 |
| 20260504213100 | 13 | 209 | 0.0 | 3.2 | 0.03 | 0.15 | 0.15 | 93 | 1013.2 |
| 20260504212511 | 13 | 327 | 0.0 | 4.8 | 0.05 | 0.15 | 0.15 | 92 | 1013.1 |
| 20260504212034 | 13 | 330 | 0.0 | 4.8 | 0.05 | 0.15 | 0.15 | 92 | 1013.2 |
| 20260504211539 | 13 | 181 | 0.0 | 4.8 | 0.05 | 0.15 | 0.15 | 92 | 1013.2 |
| 20260504211002 | 13 | 297 | 0.0 | 1.6 | 0.05 | 0.15 | 0.15 | 93 | 1013.2 |
| 20260504210508 | 13 | 181 | 0.0 | 1.6 | 0.05 | 0.15 | 0.15 | 93 | 1013.2 |
| 20260504210039 | 13 | 290 | 0.0 | 1.6 | 0.05 | 0.15 | 0.15 | 92 | 1013.3 |
| 20260504205605 | 13 | 290 | 0.0 | 1.6 | 0.05 | 0.15 | 0.15 | 92 | 1013.3 |
| 20260504205020 | 13 | 340 | 0.0 | 0.0 | 0.05 | 0.15 | 0.15 | 92 | 1013.2 |
| 20260504204537 | 13 | 339 | 0.0 | 0.0 | 0.05 | 0.15 | 0.15 | 92 | 1013.2 |
| 20260504204048 | 13 | 340 | 0.0 | 0.0 | 0.05 | 0.15 | 0.15 | 92 | 1013.2 |
| 20260504203510 | 13 | 339 | 0.0 | 0.0 | 0.05 | 0.15 | 0.15 | 91 | 1013.2 |
| 20260504203042 | 13 | 339 | 0.0 | 0.0 | 0.05 | 0.15 | 0.15 | 91 | 1013.2 |
| 20260504202604 | 13 | 339 | 0.0 | 0.0 | 0.03 | 0.13 | 0.13 | 91 | 1013.2 |
| 20260504202003 | 13 | 340 | 0.0 | 0.0 | 0.00 | 0.10 | 0.10 | 91 | 1013.2 |
| 20260504201531 | 13 | 339 | 0.0 | 0.0 | 0.00 | 0.10 | 0.10 | 90 | 1013.2 |
| 20260504201056 | 13 | 339 | 0.0 | 0.0 | 0.00 | 0.10 | 0.10 | 90 | 1013.2 |
| 20260504200621 | 13 | 339 | 0.0 | 0.0 | 0.00 | 0.10 | 0.10 | 90 | 1013.2 |
| 20260504200025 | 13 | 339 | 0.0 | 0.0 | 0.03 | 0.10 | 0.10 | 90 | 1013.2 |
| 20260504195551 | 13 | 340 | 0.0 | 0.0 | 0.03 | 0.10 | 0.10 | 90 | 1013.2 |
| 20260504195016 | 13 | 339 | 0.0 | 0.0 | 0.03 | 0.10 | 0.10 | 90 | 1013.2 |
| 20260504194539 | 13 | 340 | 0.0 | 1.6 | 0.03 | 0.10 | 0.10 | 90 | 1013.2 |
| 20260504194002 | 13 | 340 | 0.0 | 1.6 | 0.03 | 0.10 | 0.10 | 91 | 1013.2 |
| 20260504193528 | 13 | 351 | 0.0 | 1.6 | 0.03 | 0.10 | 0.10 | 91 | 1013.2 |
| 20260504193056 | 13 | 8 | 0.0 | 0.0 | 0.03 | 0.10 | 0.10 | 90 | 1013.0 |
| 20260504192515 | 13 | 8 | 0.0 | 0.0 | 0.03 | 0.10 | 0.10 | 90 | 1012.8 |
| 20260504192044 | 13 | 8 | 0.0 | 0.0 | 0.03 | 0.10 | 0.10 | 90 | 1012.7 |
| 20260504191503 | 13 | 8 | 0.0 | 0.0 | 0.03 | 0.10 | 0.10 | 89 | 1012.5 |
| 20260504191114 | 13 | 8 | 0.0 | 0.0 | 0.03 | 0.10 | 0.10 | 89 | 1012.4 |
| 20260504190552 | 14 | 8 | 0.0 | 0.0 | 0.03 | 0.10 | 0.10 | 89 | 1012.5 |